Regional Weather Roundup
Issued by NWS Huntsville, AL

Current Version | Previous Version | Text Only | Print | Product List | Glossary On
Versions: 1 2 3 4 5 6 7 8 9 10 11 12 13 14 15 16 17 18 19 20 21 22 23 24 25 26 27
000
ASUS44 KHUN 301110
RWRHUN

WEATHER ROUNDUP FOR THE TENNESSEE VALLEY
NATIONAL WEATHER SERVICE HUNTSVILLE AL
600 AM CDT FRI SEP 30 2022

ALZ001>004-301200-
NORTHWEST ALABAMA

CITY           SKY/WX    TMP DP  RH WIND       PRES   REMARKS
BANKHEAD NF      N/A     50  46  87 W1          N/A
SHOALS AIRPORT CLEAR     52  48  86 CALM      30.10S
$$

ALZ005>007-016-301200-
NORTH CENTRAL ALABAMA

CITY           SKY/WX    TMP DP  RH WIND       PRES   REMARKS
DECATUR AP     CLEAR     47  45  93 N3        30.10R
HUNTSVILLE AP  CLEAR     49  46  90 N6        30.08S
HUN NWS/UAH      N/A     52  48  86 E1          N/A
MERIDIANVILLE  CLEAR     48  46  93 N5        30.10R
VINEMONT AP    FAIR      50  48  93 N3        30.09R
$$

ALZ008>010-301200-
NORTHEAST ALABAMA

CITY           SKY/WX    TMP DP  RH WIND       PRES   REMARKS
ALBERTVILLE    CLEAR     52  46  82 NE12      30.06S
FORT PAYNE     CLEAR    N/A N/A N/A NE3       30.06R
SCOTTSBORO AP  CLEAR     50  50 100 N6        30.09S
$$

TNZ076-096-097-301200-
SOUTHEASTERN MIDDLE TENNESSEE

CITY           SKY/WX    TMP DP  RH WIND       PRES   REMARKS
FAYETTEVILLE   CLEAR     48  48 100 NE6       30.11R
TULLAHOMA      CLEAR     50  46  87 NE6       30.10R
WINCHESTER     CLEAR     45  43  93 CALM      30.10R
$$

...SURROUNDING SITES...

CITY           SKY/WX    TMP DP  RH WIND       PRES   REMARKS
ATLANTA        MOCLDY    62  44  51 NE14      30.00R
ANNISTON       CLEAR     47  45  93 CALM      30.03R
BIRMINGHAM     CLEAR     49  46  90 CALM      30.07R
CHATTANOOGA    CLEAR     57  48  72 N10       30.09R
CORINTH        CLEAR     46  45  93 CALM      30.12S
DALTON         PTCLDY    52  48  85 VRB7      30.06S
GADSDEN        CLEAR     50  47  89 N7        30.06R
GOLDEN TRNGL   CLEAR     48  45  89 NW5       30.08R
HALEYVILLE     FAIR      49  46  90 N3        30.11R
JACKSON TN     CLEAR     43  42  97 CALM      30.15R
MEMPHIS        CLEAR     52  46  80 N7        30.13S
NASHVILLE      CLEAR     50  43  77 N6        30.15S
OXFORD MS      CLEAR     48  45  87 NE5       30.13R
ROME           CLOUDY    52  48  86 N3        30.04S
SAVANNAH       CLEAR     45  45 100 CALM      30.11S
SELMER         CLEAR     48  45  87 N5        30.12S
TUPELO         CLEAR     49  44  83 N9        30.10R
TUSCALOOSA     NOT AVBL
$$




USA.gov is the U.S. government's official web portal to all federal, state and local government web resources and services.